SKYSAT-C11

Last updated on Tue Oct 15 2024 00:02:25 GMT+0000 (Coordinated Universal Time)

1 42987U 17068A 24288.10246516 .00030305 00000+0 79909-3 0 9998 2 42987 97.3694 55.4336 0021598 149.5232 210.7273 15.38205542388968
UTC large
Height (km)
Speed (km/s)
/
Latitude / Longitude
Inclination (degrees)
Orbital Period (minutes)
Azimuth
Elevation
Range (km)
Doppler Factor

Next 0 passes for location: London (51.5072 / 0.1276)

Sorry there are no passes over London.